Regional Weather Roundup
Issued by NWS Bismarck, ND

Home | Current Version | Previous Version | Text Only | Print | Product List | Glossary On
Versions: 1 2 3 4 5 6 7 8 9 10 11 12 13 14 15 16 17 18 19 20 21 22 23 24 25 26 27 28 29 30 31 32 33 34 35 36 37 38 39 40 41 42 43 44 45 46 47 48 49 50
000
ASUS43 KBIS 282302
RWRBIS

NWR BROADCAST TEXT
NATIONAL WEATHER SERVICE BISMARCK ND
600 PM CDT SUN AUG 28 2016

NOTE: "FAIR" INDICATES FEW OR NO CLOUDS BELOW 12,000 FEET WITH NO
SIGNIFICANT WEATHER AND/OR OBSTRUCTIONS TO VISIBILITY.


CITY           SKY/WX    TMP DP  RH WIND       PRES   REMARKS
WILLISTON      SUNNY     87  46  24 N13       29.96R
MINOT          SUNNY     93  54  26 S13       29.86S HX  91
MINOT AFB      SUNNY     89  57  34 N18       29.86R
BISMARCK       SUNNY     89  63  41 SE7       29.90S HX  90
DICKINSON      SUNNY     91  35  13 NW14      29.92R
GARRISON         N/A     91  58  32 SE6       29.89S HX  90
HETTINGER ARPT SUNNY     94  40  15 NW10      29.95R HX  90
JAMESTOWN      SUNNY     86  72  62 S7        29.91S HX  92
CARRINGTON     FAIR      86  68  54 S9G17     29.93S
HAZEN          FAIR      91  50  24 SE8       29.90S
OAKES            N/A    N/A N/A N/A MISG        N/A
STANLEY        FAIR      82  50  32 N12G20    29.96R
$$

CITY           SKY/WX    TMP DP  RH WIND       PRES   REMARKS
GRAND FORKS    MOSUNNY   83  69  62 SE14      29.92F
GRAND FORKS AF SUNNY     82  70  66 SE13      29.92F
DEVILS LAKE    SUNNY     81  70  69 SE10      29.93S
FARGO          SUNNY     88  71  57 S17       29.92R HX  94
GRAFTON        MOCLDY    81  70  69 SE15      29.94F
GWINNER        FAIR      88  72  58 S13G22    29.92S HX  94
LANGDON        FAIR      82  68  61 S18       29.95S
ROLLA            N/A     79  66  65 S13       29.94R
$$

CITY           SKY/WX    TMP DP  RH WIND       PRES   REMARKS
ABERDEEN       SUNNY     88  68  51 S16       29.90S HX  91
MOBRIDGE       SUNNY     94  42  16 SE7       29.88S HX  90
BUFFALO          N/A     92  44  19 N10       29.91R
RAPID CITY     SUNNY     90  49  24 NE10      29.97S
GLASGOW        SUNNY     84  45  25 NW14G20   30.00R
SIDNEY         SUNNY     87  48  25 N15       29.96R
WOLF POINT     SUNNY     86  49  27 N14G21    29.97R
GLENDIVE       CLOUDY    87  45  23 N15G21    29.98R
MILES CITY     SUNNY     93  37  14 NW12      29.96R
BAKER          SUNNY     91  38  15 NW6       29.99R
$$

CITY           SKY/WX    TMP DP  RH WIND       PRES   REMARKS
BILLINGS       CLOUDY    86  33  15 S3        30.01S
GREAT FALLS    MOSUNNY   76  44  32 N14G22    30.08R
$$





USA.gov is the U.S. government's official web portal to all federal, state and local government web resources and services.